When you browse on this site, cookies collect data to enhance your experience and personalize the content and advertising you see.
Visit our Privacy Policy to learn more. By continuing to use the site, you agree to this use of cookies and data.
  • In Hungary
  • List of Countries
  • For 7 days
  • Water Temperature
  • Weather Map
  • News
  • Weather Widgets
  • user-avatar
    Login

    Hourly Weather Halah

    Today, 21 February, Friday

    Time Temperature Precipitation Wind Pressure Humidity
    00:00 -6°C° 0 mm 1 mps 584 mmHg 78%
    01:00 -6°C° 0 mm 1 mps 584 mmHg 77%
    02:00 -6°C° 0 mm 1 mps 584 mmHg 76%
    03:00 -6°C° 0 mm 1 mps 584 mmHg 73%
    04:00 -7°C° 0 mm 1 mps 584 mmHg 72%
    05:00 -7°C° 0 mm 1 mps 584 mmHg 71%
    06:00 -7°C° 0 mm 1 mps 584 mmHg 71%
    07:00 -4°C° 0 mm 1 mps 585 mmHg 72%
    08:00 -2°C° 0 mm 1 mps 586 mmHg 74%
    09:00 -1°C° 0 mm 1 mps 587 mmHg 77%
    16:00 -3°C° 0 mm 2 mps 587 mmHg 89%
    17:00 -4°C° 0 mm 2 mps 586 mmHg 86%
    18:00 -5°C° 0 mm 2 mps 586 mmHg 83%
    19:00 -5°C° 0 mm 2 mps 586 mmHg 80%
    20:00 -6°C° 0 mm 2 mps 586 mmHg 76%
    21:00 -6°C° 0 mm 2 mps 586 mmHg 72%
    22:00 -6°C° 0 mm 2 mps 587 mmHg 71%
    23:00 -6°C° 0 mm 2 mps 587 mmHg 70%

    Tomorrow, 22 February, Saturday

    Time Temperature Precipitation Wind Pressure Humidity
    00:00 -6°C° 0 mm 2 mps 587 mmHg 69%
    01:00 -6°C° 0 mm 2 mps 587 mmHg 68%
    02:00 -6°C° 0 mm 2 mps 587 mmHg 67%
    03:00 -5°C° 0 mm 2 mps 587 mmHg 67%
    04:00 -5°C° 0 mm 2 mps 587 mmHg 66%
    05:00 -5°C° 0 mm 2 mps 587 mmHg 65%
    06:00 -3°C° 0 mm 1 mps 587 mmHg 64%
    07:00 -2°C° 0 mm 1 mps 588 mmHg 67%
    08:00 -1°C° 0 mm 1 mps 589 mmHg 69%
    09:00 0°C° 0 mm 1 mps 590 mmHg 72%
    10:00 +1°C° 0 mm 1 mps 590 mmHg 77%
    11:00 +1°C° 0 mm 1 mps 590 mmHg 82%
    12:00 +2°C° 0 mm 1 mps 591 mmHg 87%
    13:00 +1°C° 0 mm 1 mps 590 mmHg 87%
    14:00 +1°C° 0 mm 1 mps 590 mmHg 88%
    15:00 +1°C° 0 mm 1 mps 590 mmHg 88%
    16:00 0°C° 0 mm 1 mps 590 mmHg 83%
    17:00 -1°C° 0 mm 1 mps 589 mmHg 79%
    18:00 -2°C° 0 mm 1 mps 588 mmHg 74%
    19:00 -2°C° 0 mm 1 mps 588 mmHg 71%
    20:00 -2°C° 0 mm 1 mps 589 mmHg 67%
    21:00 -2°C° 0 mm 1 mps 589 mmHg 64%
    22:00 -2°C° 0 mm 1 mps 588 mmHg 64%
    23:00 -2°C° 0 mm 1 mps 588 mmHg 63%

    Day after tomorrow, 23 February, Sunday

    Time Temperature Precipitation Wind Pressure Humidity
    00:00 -3°C° 0 mm 1 mps 588 mmHg 63%
    01:00 -5°C° 0 mm 2 mps 588 mmHg 61%
    02:00 -5°C° 0 mm 2 mps 588 mmHg 60%
    03:00 -6°C° 0 mm 2 mps 587 mmHg 58%
    04:00 -6°C° 0 mm 2 mps 587 mmHg 56%
    05:00 -5°C° 0 mm 2 mps 587 mmHg 55%
    06:00 -3°C° 0 mm 1 mps 587 mmHg 54%
    07:00 -2°C° 0 mm 1 mps 588 mmHg 58%
    08:00 0°C° 0 mm 1 mps 589 mmHg 62%
    09:00 +1°C° 0 mm 1 mps 590 mmHg 66%
    10:00 +1°C° 0 mm 1 mps 590 mmHg 71%
    11:00 +2°C° 0 mm 1 mps 590 mmHg 76%
    12:00 +2°C° 0 mm 1 mps 590 mmHg 82%
    13:00 +1°C° 0 mm 2 mps 589 mmHg 83%
    14:00 +1°C° 0 mm 2 mps 589 mmHg 84%
    15:00 +1°C° 0 mm 2 mps 588 mmHg 85%
    16:00 -2°C° 0 mm 2 mps 587 mmHg 85%
    17:00 -3°C° 0 mm 2 mps 587 mmHg 84%
    18:00 -4°C° 0 mm 2 mps 587 mmHg 83%
    19:00 -5°C° 0 mm 2 mps 586 mmHg 82%
    20:00 -5°C° 0 mm 2 mps 586 mmHg 80%
    21:00 -6°C° 0 mm 3 mps 586 mmHg 79%
    22:00 -6°C° 0 mm 3 mps 586 mmHg 79%
    23:00 -6°C° 0 mm 3 mps 586 mmHg 80%

    24 February, Monday

    Time Temperature Precipitation Wind Pressure Humidity
    00:00 -7°C° 0 mm 3 mps 586 mmHg 80%
    01:00 -7°C° 0 mm 3 mps 586 mmHg 81%
    02:00 -7°C° 0 mm 3 mps 585 mmHg 81%
    03:00 -7°C° 0 mm 3 mps 585 mmHg 82%
    04:00 -7°C° 0 mm 3 mps 585 mmHg 82%
    05:00 -7°C° 0 mm 3 mps 585 mmHg 83%
    06:00 -7°C° 0 mm 3 mps 585 mmHg 83%
    07:00 -6°C° 0 mm 3 mps 585 mmHg 81%
    08:00 -5°C° 0 mm 3 mps 586 mmHg 80%
    09:00 -4°C° 0 mm 3 mps 587 mmHg 79%
    10:00 -2°C° 0 mm 3 mps 586 mmHg 80%
    11:00 -2°C° 0 mm 3 mps 586 mmHg 81%
    12:00 -1°C° 0 mm 3 mps 586 mmHg 82%
    13:00 -1°C° 0 mm 3 mps 585 mmHg 81%
    14:00 -1°C° 0 mm 3 mps 584 mmHg 80%
    15:00 -1°C° 0 mm 3 mps 584 mmHg 79%
    16:00 -3°C° 0 mm 4 mps 583 mmHg 78%
    17:00 -5°C° 0 mm 4 mps 582 mmHg 77%
    18:00 -7°C° 0 mm 4 mps 581 mmHg 75%
    19:00 -7°C° 0 mm 4 mps 580 mmHg 75%
    20:00 -7°C° 0 mm 4 mps 580 mmHg 75%
    21:00 -7°C° 0 mm 5 mps 580 mmHg 75%
    22:00 -8°C° 0 mm 5 mps 579 mmHg 75%
    23:00 -8°C° 0 mm 5 mps 579 mmHg 76%

    25 February, Tuesday

    Time Temperature Precipitation Wind Pressure Humidity
    00:00 -8°C° 0 mm 5 mps 578 mmHg 77%
    01:00 -8°C° 0 mm 5 mps 578 mmHg 75%
    02:00 -8°C° 0 mm 5 mps 577 mmHg 74%
    03:00 -8°C° 0 mm 4 mps 577 mmHg 72%
    04:00 -8°C° 0 mm 4 mps 577 mmHg 72%
    05:00 -8°C° 0 mm 4 mps 577 mmHg 72%
    06:00 -8°C° 0 mm 4 mps 577 mmHg 72%
    07:00 -7°C° 0 mm 4 mps 578 mmHg 72%
    08:00 -4°C° 0 mm 3 mps 579 mmHg 73%
    09:00 -2°C° 0 mm 3 mps 580 mmHg 74%
    10:00 -2°C° 0 mm 2 mps 581 mmHg 77%
    11:00 -1°C° 0 mm 2 mps 581 mmHg 80%
    12:00 -1°C° 0 mm 2 mps 582 mmHg 83%
    13:00 -2°C° 0.2 mm 2 mps 582 mmHg 86%
    14:00 -3°C° 0.2 mm 2 mps 581 mmHg 89%
    15:00 -5°C° 0.2 mm 3 mps 581 mmHg 92%
    16:00 -4°C° 0.8 mm 2 mps 581 mmHg 93%
    17:00 -5°C° 0.8 mm 2 mps 581 mmHg 94%
    18:00 -4°C° 0.8 mm 1 mps 581 mmHg 94%
    19:00 -6°C° 0.8 mm 1 mps 581 mmHg 94%
    20:00 -7°C° 0.8 mm 1 mps 581 mmHg 94%
    21:00 -7°C° 0.8 mm 1 mps 581 mmHg 94%
    22:00 -8°C° 0.3 mm 1 mps 581 mmHg 94%
    23:00 -9°C° 0.3 mm 1 mps 581 mmHg 94%

    26 February, Wednesday

    Time Temperature Precipitation Wind Pressure Humidity
    00:00 -9°C° 0.3 mm 1 mps 581 mmHg 94%
    01:00 -10°C° 0.1 mm 1 mps 581 mmHg 93%
    02:00 -10°C° 0.1 mm 1 mps 581 mmHg 92%
    03:00 -10°C° 0.1 mm 1 mps 581 mmHg 91%
    04:00 -10°C° 0.1 mm 1 mps 581 mmHg 91%
    05:00 -10°C° 0.1 mm 1 mps 582 mmHg 90%
    06:00 -11°C° 0.1 mm 1 mps 582 mmHg 89%
    07:00 -9°C° 0 mm 1 mps 583 mmHg 88%
    08:00 -8°C° 0 mm 1 mps 585 mmHg 86%
    09:00 -6°C° 0 mm 1 mps 586 mmHg 84%
    10:00 -6°C° 0.1 mm 1 mps 586 mmHg 84%
    11:00 -4°C° 0.1 mm 1 mps 587 mmHg 84%
    12:00 -5°C° 0.1 mm 2 mps 587 mmHg 84%
    13:00 -5°C° 0.1 mm 2 mps 587 mmHg 85%
    14:00 -3°C° 0.1 mm 1 mps 587 mmHg 85%
    15:00 -3°C° 0.1 mm 1 mps 587 mmHg 85%
    16:00 -6°C° 0 mm 2 mps 586 mmHg 82%
    17:00 -8°C° 0 mm 2 mps 586 mmHg 80%
    18:00 -9°C° 0 mm 2 mps 585 mmHg 77%
    19:00 -9°C° 0 mm 2 mps 585 mmHg 69%
    20:00 -10°C° 0 mm 3 mps 585 mmHg 61%
    21:00 -10°C° 0 mm 3 mps 585 mmHg 54%
    22:00 -9°C° 0 mm 3 mps 585 mmHg 49%
    23:00 -9°C° 0 mm 3 mps 585 mmHg 44%
    Show more